Tracking 25701 objects as of 4-Jul-2022
HD Live streaming from Space Station
objects crossing your sky now

FENGYUN 1C DEB

Track FENGYUN 1C DEB now!
10-day predictions


NORAD ID: 31349
Int'l Code: 1999-025BRD
Perigee: 850.2 km
Apogee: 954.8 km
Inclination: 99.3 °
Period: 102.9 minutes
Semi major axis: 7273 km
RCS: 0.0157 m2 (small)
Launch date: May 10, 1999
Source: People's Republic of China (PRC)
Launch site: Taiyaun Space Center, China (TSC)

Note: This is SATELLITE DEBRIS
aabbcc
Your satellite tracking list
Your tracking list is empty




NASA's NSSDC Master Catalog

Two Line Element Set (TLE):
1 31349U 99025BRD 22184.78486132  .00000169  00000-0  14391-3 0  9998
2 31349  99.3049 171.7294 0071906  96.4214 264.5143 13.99546730453101
Source of the keplerian elements: AFSPC